024  
ASUS46 KPDT 271525  
RWRPDT  
PENDLETON REGIONAL WEATHER ROUNDUP  
NATIONAL WEATHER SERVICE PENDLETON OREGON  
700 AM PST THU NOV 27 2014  
 
NOTE: FAIR INDICATES FEW OR NO CLOUDS BELOW 12,000 FEET WITH NO  
SIGNIFICANT WEATHER AND/OR S TO VISIBILITY
.  
 
# INDICATES UNOFFICIAL STATION AND DATA  
 
WAZ520-271610-  
EAST SLOPES OF WASHINGTON CASCADES  
 
CITY SKY/WX TMP DP RH WIND PRES REMARKS
 
#BULLFROG 2SW N/A 41 41 100 S2 27.47S  
#BUMPING DAM N/A 41 N/A N/A S6 N/A  
#CLE ELUM HS N/A 40 39 96 CALM 29.84S  
#CLE ELUM 2NW N/A 38 38 100 CALM N/A  
#CLE ELUM LAKE N/A N/A N/A N/A S7 29.84R  
#CLIFFDEL 2NW N/A 45 40 82 N3 N/A  
#GLENWOOD N/A 51 44 77 S3 29.91S  
#MANASTASH CYN N/A 36 33 89 SW2 29.84S  
#NELSON N/A 39 38 96 CALM 29.91S  
#NELSON 3SW N/A 40 39 96 CALM 30.10R  
#NILE N/A 35 34 96 CALM 29.14F  
#RONALD 2NW N/A 42 41 96 CALM 29.75S  
#SNOWDEN N/A 48 39 71 CALM N/A  
#TROUT LAKE HS N/A 52 46 80 CALM N/A  
#TROUT LAKE 1NE N/A 50 44 80 CALM 29.95R  

 
 
WAZ521-271610-  
SIMCOE HIGHLANDS  
 
CITY SKY/WX TMP DP RH WIND PRES REMARKS
 
#BICKLETON HS N/A 49 36 61 W12G26 30.00S WCI 44  
#CENTERVILLE 4W N/A 51 45 80 N10 29.70F  
#CENTERVILLE 1SWN/A 51 43 74 N3 29.92R  
#GOLDENDALE N/A 53 45 74 NW10 N/A  
#GOLDENDALE 1NE N/A 53 41 64 W6 N/A  
#GOLDENDALE 1S N/A 51 45 80 W8 29.91F  
#GOLDENDALE 5WNWN/A 52 45 77 W10 29.91F  
#GOODNOE HILLS N/A 51 43 74 W9 N/A  
#LYLE 6NE N/A 52 46 80 CALM 29.91F  

 
 
WAZ026-271610-  
KITTITAS VALLEY  
 
CITY SKY/WX TMP DP RH WIND PRES REMARKS
 
ELLENSBURG AP FOG 33 31 92 E5 29.86F VSB 1/4  
#ELLENSBURG CWU N/A 33 32 96 E2 29.88S  
#ELLENSBURG 3NE N/A 31 30 96 CALM 29.88S  
#ELLENSBURG N/A 34 34 100 E1 N/A  
#KITTITAS 4N N/A 31 28 88 CALM 29.91F  
#KITTITAS 3S N/A 31 30 96 CALM 29.91S  
#THORP 6N N/A 41 40 96 N2 29.91F  

 
 
WAZ027-271610-  
YAKIMA VALLEY  
 
CITY SKY/WX TMP DP RH WIND PRES REMARKS
 
YAKIMA AIRPORT PTCLDY 56 42 59 SW12 29.84F  
YAKIMA-VAGABOND MOCLEAR 52 43 71 S16 29.86S  
#DONALD 2NE N/A 57 41 55 N3 28.74S  
#GRANDVIEW N/A 57 41 55 SW3 29.91F  
#MABTON N/A 59 44 57 S8 29.90R  
#MOXEE 2E N/A 55 34 45 S26 29.81F  
#NACHES 2SW N/A 51 41 68 E2 29.85S  
#OUTLOOK DOT N/A N/A N/A N/A S6 N/A  
#SELAH 8E N/A 50 41 71 S20G29 N/A  
#TERRACE HTS N/A 51 44 77 CALM 29.85S  
#TOPPENISH N/A 55 44 66 CALM 29.80F  
#WAPATO 4NE N/A 57 41 55 N3 28.74S  
#WEST VALLEY N/A 52 41 66 CALM 29.85S  
#W YAKIMA N/A 51 43 74 N1 29.87S  
#WHITE SWAN 5E N/A 57 45 64 SW18G28 29.87F  
#WILEY CITY 3W N/A 48 32 54 CALM 29.85F  

 
 
WAZ028-271610-  
LOWER COLUMBIA BASIN...WASHINGTON  
 
CITY SKY/WX TMP DP RH WIND PRES REMARKS
 
PASCO PTCLDY 52 43 71 S10 29.92S  
PROSSER AWOS N/A 57 43 59 S13 29.92F  
RICHLAND AWOS MOCLDY 52 45 77 S6 29.91S  
#BASIN CITY 5SW N/A 48 43 83 SW1 29.90R  
#CONNELL 5N N/A 48 43 83 S9 29.90S  
#CONNELL 5NW N/A 48 42 80 S10 29.87S  
#ELTOPIA 6NW N/A 50 44 80 S6 28.86R  
#KAHLOTUS N/A 52 42 69 W16 29.91R  
#KENNEWICK N/A 41 41 100 S2 27.47S  
#KENNEWICK 3S N/A 55 44 66 S8 29.93S  
#PATERSON N/A 43 41 93 CALM 29.92S  
#PROSSER N/A 57 41 55 S5 29.92S  
#SAGEMOOR 2W N/A 55 45 69 SE3 29.77S  
#TOUCHET 2S N/A 42 39 89 CALM 29.92R  
#WEST PASCO N/A 51 49 93 E1 29.92S  

 
 
WAZ029-271610-  
FOOTHILLS OF THE BLUES...WASHINGTON  
 
CITY SKY/WX TMP DP RH WIND PRES REMARKS
 
WALLA WALLA AP CLOUDY 57 38 49 CALM 29.93R  
#COLLEGE PLACE N/A 51 40 66 E1 29.94S  
#DAYTON SCHOOL N/A 57 36 45 NE5 29.94S  
#LOWDEN 2SE N/A 47 44 89 CALM 29.89R  
#PLEASANT VIEW 1N/A 50 41 71 SW8 29.95S  
#PRESCOTT N/A 50 44 80 CALM 29.91S  
#SUDBURY N/A 50 N/A N/A CALM N/A  
#WHITMAN COLLEGEN/A 58 39 49 NW3 29.97R  
#WAITSBURG 5S N/A 55 40 57 S1 30.01R  
#WAITSBURG 8N N/A 56 25 30 S7 29.88F  
#WALLA WALLA 5E N/A 58 37 45 S6 N/A  
#WALLA WALLA U N/A 52 43 71 CALM 29.91S  
#WHITMAN MISSIONN/A 51 44 77 CALM 29.93S  

 
 
WAZ030-271610-  
BLUE MOUNTAINS...WASHINGTON  
 
CITY SKY/WX TMP DP RH WIND PRES REMARKS
 
#DIXIE 5SE N/A 58 26 29 S12 29.90R  

 
 
ORZ009-041-WAZ024-271610-  
COLUMBIA RIVER GORGE  
 
CITY SKY/WX TMP DP RH WIND PRES REMARKS
 
HOOD RIVER AP MOCLDY 54 46 74 CALM 29.95S  
THE DALLES AP CLOUDY 53 46 77 SW6 29.94S  
#ARLINGTON AIRPON/A 48 43 83 E2 29.99S  
#CELILO DOT N/A 55 44 66 SW2 N/A  
#MARYHILL 2W N/A 58 46 64 N9 N/A  
#MOSIER 1S N/A 48 43 83 SW6 29.97S  
#MURDOCK N/A 54 49 83 N6 29.96R  
#RUFUS DOT N/A 59 40 49 S7 N/A  
 

 
 
ORZ510-271610-  
NORTH CENTRAL OREGON  
 
CITY SKY/WX TMP DP RH WIND PRES REMARKS
 
#CHENOWITH 1W N/A 52 44 74 W16 N/A  
#COW CYN RST AREN/A 55 34 45 SW12 N/A  
#DUFUR 9E N/A 55 40 57 SW25G41 29.96F  
#GRASS VALLEY N/A 53 39 59 SW7 N/A  
#GRASS VALLEY 1SN/A 53 41 64 SW12 29.96F  
#KENT DOT N/A 51 32 48 SW8 N/A  
#MAUPIN SCHOOL N/A 50 42 74 SW2 28.84  
#MORO SCHOOL N/A 56 45 66 S7 29.95F  
#SHANIKO 5WSW N/A 50 27 41 SW18 N/A  
#SHANIKO 4NW N/A 52 34 50 SW8G24 29.96F  
#TYGH VALLEY 2NEN/A 61 43 51 SW13 29.93F  
#WAPANITIA AIRPON/A 58 41 53 NW7 29.96F  
#WASCO DOT N/A 47 42 83 W6 N/A  
#WASCO 5NE N/A 48 43 83 N5 29.92F  

 
 
ORZ511-271610-  
CENTRAL OREGON  
 
CITY SKY/WX TMP DP RH WIND PRES REMARKS
 
BEND AIRPORT PTCLDY 50 32 50 S17G25 30.04R  
MADRAS AIRPORT PTCLDY 50 34 54 SW9 30.00F  
PRINEVILLE AP CLOUDY 55 32 41 S9 30.03F  
REDMOND AIRPORT MOCLEAR 53 33 46 S14 30.01S  
#BEND 1SW N/A 44 36 73 CALM N/A  
#BEND-AWBREY N/A 49 35 58 N5 30.00S  
#BEND-KIM LN N/A 50 36 58 SW7 30.00R  
#CROOKED RVR RANN/A 49 36 61 SW38G45 29.97F WCI 40  
#CULVER N/A 52 36 54 E2 29.95F  
#LAKE BILLY CHINN/A 58 5 12 W3 30.06F  
#POWELL BUTTE N/A 54 32 43 S7 29.65S  
#PRINEVILLE 3N N/A 56 35 45 E12G24 29.99S  
#WARM SPRINGS N/A 61 39 44 SE3 29.93F  
 
 
ORZ509-271610-  
EAST SLOPES OF OREGON CASCADES  
 
CITY SKY/WX TMP DP RH WIND PRES REMARKS
 
#BLUE BOX PASS N/A 45 -5 12 W2 N/A  
#BLACK BUTTE RNCN/A 47 37 68 S1 30.02R  
#CAMP SHERMAN N/A 47 33 58 SW1 30.00S  
#LA PINE DOT N/A 44 30 58 SW3 N/A  
#LA PINE 4NW N/A 46 34 63 W2 30.12F  
#LAVA BUTTE DOT N/A 44 28 53 SE6 N/A  
#MT BACHELOR-MIDN/A 35 31 85 S20G33 N/A WCI 24  
#SISTERS AIRPOR N/A 56 40 55 N3 29.91S  
#SISTERS ODOT N/A 51 N/A N/A CALM N/A  
#SISTERS 3N N/A 49 32 52 SW7 30.01S  
#SUNRIVER N/A 44 36 73 SW3 29.95R  
#SUNRIVER AP N/A 57 49 75 NE1 29.94S  
#SUTTLE LK DOT N/A 46 35 65 W35G55 N/A WCI 36  
#TUMALO 3W N/A 55 33 43 S12 29.84F  
#WANOGA BUTTE D N/A 41 32 70 W16G25 N/A WCI 33  
 

 
 
ORZ044-271610-  
LOWER COLUMBIA BASIN...OREGON  
 
CITY SKY/WX TMP DP RH WIND PRES REMARKS
 
HERMISTON CLEAR 40 38 92 CALM 29.94R  
#BOARDMAN 3W N/A 38 38 100 NE1 29.68S  
#BOARDMAN 8SW N/A 45 42 89 S5 29.93S  
#ECHO 8SW N/A 55 40 57 W6 29.90S  
#IONE SCHOOL N/A 50 35 56 CALM 29.94R  
#IRRIGON 4NW N/A 41 41 100 SE1 N/A  
#UMATILLA SCHOOLN/A 38 38 100 S3 29.96S  
#UMATILLA N/A 42 38 86 S1 29.91S  

 
 
ORZ507-271610-  
NORTHERN FOOTHILLS OF THE BLUES  
 
CITY SKY/WX TMP DP RH WIND PRES REMARKS
 
PENDLETON AIRPT CLOUDY 59 32 36 SW15 29.94R  
#ADAMS 3WNW N/A 54 38 55 CALM 29.94R  
#ATHENA N/A 58 39 49 W2 29.95R  
#CAYUSE N/A 59 37 44 N8 29.91S  
#HELIX SCHOOL N/A 50 39 66 W3 29.94S  
#HELIX 3N N/A 52 37 56 N12 29.91S  
#HOLDMAN 5SE N/A 50 39 66 S2 29.96R  
#HOLDMAN 6E N/A 56 38 51 W1 29.75R  
#M-F FERNDALE N/A 56 38 51 CALM 29.92R  
#M-F GROVE ELEM N/A 63 33 32 CALM 29.91R  
#M-FREEWATER 5SEN/A 65 37 35 S2 29.93R  
#PENDLETON DNTN N/A 51 39 63 SW1 28.73S  
#PDT AQUATIC CTRN/A 59 40 49 SW6 29.91S  
#PENDLETON 5NE N/A 54 39 57 CALM 29.91R  
#PDT SUNRIDGE N/A 58 36 44 W2 29.95R  
#PENDLETON 7NW N/A 47 38 71 CALM 25.85F  
#TUTUILLA N/A 55 37 51 S6 29.93R  
#UMAPINE 2E N/A 55 41 59 CALM 29.90R  
#WESTON SCHOOL N/A 61 29 30 SW7 29.92R  
 

 
 
ORZ508-271610-  
SOUTHERN FOOTHILLS OF THE BLUES  
 
CITY SKY/WX TMP DP RH WIND PRES REMARKS
 
LEXINGTON CLOUDY 54 34 47 CALM 29.97R  
#AJAX N/A 55 31 40 S9 29.89F  
#CONDON SCHOOL N/A 55 37 51 VRB10G5029.92F  
#CONDON 5W N/A 51 33 50 SW16G24 29.94F  
#FOSSIL SCHOOL N/A 51 33 50 E3 29.96S  
#HEPPNER EOC N/A 59 33 37 SE3 29.88R  
#HEPPNER 4NE N/A 55 32 41 CALM 29.92S  
#LEXINGTON 2SE N/A 54 35 48 S3 29.91S  
#MIKKALO N/A 50 36 58 SW2 29.93S  
#OLEX 4N N/A 50 43 77 CALM 29.93S  
#RUGGS 5NE N/A 54 31 41 S7 30.14R  
#RUGGS 2SW N/A 55 33 43 W10 29.95S  
 

 
 
ORZ502-503-271610-  
BLUE MOUNTAINS  
 
CITY SKY/WX TMP DP RH WIND PRES REMARKS
 
MEACHAM MOCLDY 46 36 68 CALM 30.01R  
#BATTLE MTN DOT N/A 46 32 58 S10 N/A  
#HARDMAN 10S N/A 46 32 58 CALM 30.11F  
#HEPPNER 15SE N/A 49 33 54 N3 29.91S  
#LADD CYN SMT N/A 44 31 60 SE12 N/A WCI 38  
#LADD CREEK ODOTN/A 48 35 60 SW8 N/A  
#LONG CREEK HS N/A 54 38 55 SW20G29 29.98R  
#N POWDER DOT N/A 39 36 89 SW7 N/A  
#PIKES PEAK N/A 57 28 33 SW30G43 27.99S  
#TOLLGATE N/A 45 33 63 SW2 29.96S  
#TROY SCHOOL N/A 42 39 89 SW1 29.86S  
#UKIAH N/A 32 31 96 CALM 30.10R  

 
 
ORZ505-271610-  
JOHN DAY BASIN  
 
CITY SKY/WX TMP DP RH WIND PRES REMARKS
 
JOHN DAY MOCLDY 56 33 42 SW16G32 30.06F  
#DAYVILLE SCHOOLN/A 58 34 40 S1 29.99F  
#MONUMENT HS N/A 36 33 89 CALM 30.03R  
#WINLOCK N/A 43 31 62 W2 30.09S  

 
 
ORZ506-271610-  
OCHOCO AND JOHN DAY HIGHLANDS  
 
CITY SKY/WX TMP DP RH WIND PRES REMARKS
 
#BUCK CREEK DOT N/A 50 36 58 S2 N/A  
#HORSE RIDGE DO N/A 50 29 44 SE7 N/A  
#KEYES SMT DOT N/A 50 -53 1 SE3 N/A  
#PINE MTN OBS N/A 41 27 57 SE30G46 N/A WCI 30  
#PRAIRIE CITY N/A 39 28 64 CALM 30.18R  
#SENECA N/A 43 N/A N/A S10 N/A  
#SENECA 9NW N/A 31 29 92 CALM 30.18S  

 
 
ORZ049-271610-  
GRANDE RONDE VALLEY  
 
CITY SKY/WX TMP DP RH WIND PRES REMARKS
 
LA GRANDE PTCLDY 52 34 50 S17 30.03S  
#COVE N/A 47 41 79 CALM 30.03S  
#COVE SCHOOL N/A 47 39 74 CALM 30.00S  
#COVE 6NW N/A 48 37 65 S2 30.06R  
#ELGIN 3N N/A 52 35 52 SW10 29.73S  
#ELGIN 1E N/A 50 38 63 S1 N/A  
#IMBLER SCHOOL N/A 48 38 68 S7 30.00R  
#ISLAND CITY 4N N/A 55 51 86 CALM 29.93S  
#LADD CYN DOT N/A 51 35 54 S22G31 N/A  
#UNION 1S N/A 50 38 63 S8 29.95S  

 
 
ORZ050-271610-  
WALLOWA COUNTY  
 
CITY SKY/WX TMP DP RH WIND PRES REMARKS
 
#ENTERPRISE AP N/A 54 30 40 SE8G26 29.95S  
#ENTERPRISE HS N/A 55 36 49 SE2 30.02R  
#IMNAHA SCHOOL N/A 60 36 41 S13 29.99R  
#IMNAHA 10S N/A 57 34 42 SW10 30.02R  
#JOSEPH 3N N/A 49 34 56 E15 30.03S WCI 43  
#JOSEPH 3W N/A 52 31 44 S1 29.86R  
#LOSTINE N/A 41 35 79 SW1 29.82R  
#MT HOWARD 8000 N/A 38 27 64 W18G40 30.09R WCI 28  
#PROMISE 1S N/A 48 37 65 NE8 30.08S  
#SHEEP RDG 7000 N/A 42 27 55 CALM 29.98R  
#WALLOWA SCHOOL N/A 37 36 96 CALM 30.97R  
 

 
 
CLICK HERE TO GO TO PREVIOUS BULLETINS.

The Nexlab OR Page
The Nexlab WA Page Main Text Page